Погода в Серафимовиче

Погода в Серафимовиче : погода сейчас, прогноз погоды и архив. Всё, что Вы хотите узнать о погоде в Серафимовиче!

Поиск расширенной информации на нашем сайте:

Другие новости

Новости СМИ2

Главная страница сайта

Новости сайта

03.07.2017

Напоминаем, что на нашем специализированном сайте Метеоцентр.Азия вы можете получить высокодетализированные автоматические прогнозы погоды по пунктам России, СНГ и мира в авиационном формате (включающие направление и скорость ветра, видимость, явления погоды, количество и форму облачности, нижнюю и верхнюю границу облачности).

Рекомендуем: Работаем с овощами и салатами. Для ускорения работы используйте яйцерезку, это удобно.

Погода в Серафимовиче - сегодня

Время (UTC), дата Ветер
(°,м/с) 
Видим.   Явления Облачность Т
(°С)
Тd
(°С)
f(%) Тe
(°С)
Pmin
(гПа)
dP
(гПа)
Po
(мм)
O2
(г/м3)
Тmin Tmax R s Состояние
почвы
00 18.08.17 130 (ЮВ) 20000 м    4/0 средняя 
[Ac lent]
+21 +6.9 40 +21  1020  0.4  754  281           
03 18.08.17 070 (В) 20000 м    4/0 средняя 
[Ac trans]
+18 +9.1 56 +19  1020.9  0.8  755  284  +17.4        сухая 
06 18.08.17 070 (В) 20000 м    4/3 600 м средняя, верхняя 
[Cu hum|Ac trans|Ci fib]
+25.4 +11.3 41 +28  1021  0.4  755  276           
09 18.08.17 100 (В) 20000 м    8/0 средняя, верхняя 
[Ac trans|Ci fib]
+27.5 +10.3 34 +29  1021.1  0.2  755  275           
12 18.08.17 050 (СВ) 20000 м    8/5 600 м кучево-дожд., средняя, верхняя 
[Cb calv|Ac trans|Ci fib]
+31.7 +9.7 26 +32  1019.7  -1.1  754  271           
15 18.08.17 040 (СВ) 5-10  20000 м    8/5 600 м кучево-дожд., средняя, верхняя 
[Cb calv|Ac trans|Ci fib]
+27.8 +6.1 25 +28  1020.5  0.6  755  275    +32.2       
18 18.08.17 080 (В) 10-19{19}  20000 м  гроза без осадков  9/8 600 м кучево-дожд., средняя 
[Cb calv|Ac trans]
+22.8 +10 44 +24  1021  0.3  755  279           
21 18.08.17 100 (В) 3{19}  20000 м  {гроза, ливн. осадки}  9/0 средняя 
[Ac trans]
+21.2 +11.4 54 +24  1021.2  -0.1  755  280           
00 19.08.17 080 (В) 20000 м  {гроза, ливн. осадки}  6/0 средняя, верхняя 
[Ac trans|Ci ing]
+19.3 +9.4 53 +20  1021.5  0.2  755  283           
03 19.08.17 070 (В) 20000 м    3/0 средняя 
[Ac trans]
+17.6 +9.6 59 +20  1022.6  756  284  +17.3    0.5    сухая 
06 19.08.17 070 (В) 20000 м    1/0 средняя 
[Ac trans]
+24.6 +10.6 41 +26  1022.7  0.4  756  278           
09 19.08.17 060 (СВ) 20000 м    1/0 средняя 
[Ac trans]
+29.8 +7.8 25 +30  1021.8  0.4  756  273           
12 19.08.17 070 (В) 20000 м    1/0 средняя 
[Ac trans]
+31.4 +6.9 22 +31  1020.9  -0.9  755  272           
15 19.08.17 020 (С) 20000 м    1/0 средняя 
[Ac trans]
+29.4 +7.3 25 +29  1020.4  -0.9  755  273    +31.7       
18 19.08.17 060 (СВ) 20000 м    ясно 
+23.8 +8.5 38 +24  1021.2  0.5  755  278           
21 19.08.17 070 (В) 20000 м    ясно 
+20.7 +8.9 47 +21  1021.4  755  281           
00 20.08.17 090 (В) 20000 м    ясно 
+18.6 +8.2 51 +20  1021.5  755  283           
03 20.08.17 100 (В) 20000 м    3/0 верхняя 
[Ci fib]
+18 +7.9 52 +19  1021.7  0.2  755  284  +17.2        сухая 
06 20.08.17 070 (В) 20000 м    1/0 средняя 
[Ac trans]
+26.1 +9.6 35 +27  1021.2  -0.2  755  276           
09 20.08.17 110 (В) 20000 м    3/0 средняя, верхняя 
[Ac trans|Ci sp]
+30.6 +7.3 23 +31  1020.2  -0.8  754  272           
12 20.08.17 120 (ЮВ) 6-10{10}  20000 м    8/0 средняя 
[Ac cast]
+32.8 +1.7 14 +33  1019.1  -0.9  754  271           
15 20.08.17 120 (ЮВ) 2{10}  20000 м    8/0 средняя 
[Ac lent]
+31.1 +1.5 15 +31  1018.1  -1.1  753  272    +34.3       
18 20.08.17 140 (ЮВ) 20000 м    9/0 средняя 
[Ac lent]
+26.9 +4.3 23 +27  1019.4  1.2  754  276           
21 20.08.17 160 (Ю) 20000 м    9/0 средняя 
[Ac lent]
+24.5 +6.5 31 +25  1019.9  0.4  754  278           
00 21.08.17 140 (ЮВ) 20000 м    10/0 средняя 
[Ac und]
+21.7 +8.7 43 +22  1019.6  -0.4  754  280           
Время (UTC), дата Ветер
(°,м/с) 
Видим.   Явления Облачность Т
(°С)
Тd
(°С)
f(%) Тe
(°С)
Pmin
(гПа)
dP
(гПа)
Po
(мм)
O2
(г/м3)
Тmin Tmax R s Состояние
почвы

Для получения пояснительной информации подведите курсор к названию столбца.

ПОГОДА в Серафимовиче - архив

Всё, что Вы хотите узнать о погоде в Серафимовиче - удобно и подробно!

Выберите нужную дату (начиная с 1 января 2015* года) и нажмите кнопку "Найти".
Будут отображены архивные сводки погоды по пункту Серафимович, начиная с указанной даты.


Отображать данные в формате CSV (для использования в таблицах Excel)


Внимание! Наш архив погоды предназначен исключительно для личного некоммерческого использования в познавательных целях. Если Вам необходимы официальные справки о состоянии погоды (для производственных, юридических, коммерческих и т.п. целей), обращайтесь в органы Росгидромета.

*Примечание: данная дата относится к архиву по метеостанциям СССР (Россия, СНГ, Балтия).
Архив по метеостанциям Зарубежной Европы и Азии (кроме Китая) хранится 10 дней, по другим регионам земного шара (Китай, Африка, Америка, Австралия, Океания) - 1 день.

Серафимович - район местоположения метеостанции


Название, широта, долгота, высота метеостанции:
Серафимович 49.6°ш. 42.8°д. 200 м над ур. моря [Российская Федерация]

Дополнительная информация

В oтличие oт бoльшинства пoгoдных сайтoв мы публикуем пoдрoбную метеoинфoрмацию в детальнoм прoфессиoнальнoм фoрмате.

Характеристики температуры и влажнoсти вoздуха измеряются на высoте 2 м в тени вдали oт зданий и деревьев.
Скoрoсть ветра измеряется на высoте 10 м (на урoвне рoста челoвека скoрoсть ветра ниже в 1.5-2 раза). Если метеoстанция нахoдится в гoрoде или в лесу, тo скoрoсть ветра занижена на 2-4 м/с пo сравнению с oткрытым местoм. Скoрoсть ветра над акватoриями крупных рек и oзёр, а также на вершинах хoлмoв на 2-5 м/с выше, чем в oбычных услoвиях.
Атмoсфернoе давление в разных тoчках местнoсти мoжет значительнo oтличаться oт давления на метеoстанции, в зависимoсти oт услoвий рельефа (при пoдъёме на 10 м давление пoнижается примернo на 1 мм рт.ст.).